Weather History for Lorain / Elyria, OH

Change the Weather History Date:

Saturday, January 19, 2013

  Actual Average (KCLE) Record (KCLE)
Temperature  
Mean Temperature 44 °F 28 °F  
Max Temperature 50 °F 34 °F 67 °F (1907)
Min Temperature 37 °F 22 °F -20 °F (1994)
Degree Days  
Heating Degree Days 22 37  
Month to date heating degree days 702  
Since 1 July heating degree days 2809  
Cooling Degree Days 0 0  
Month to date cooling degree days 0  
Year to date cooling degree days 0  
Moisture  
Dew Point 25 °F    
Average Humidity 46    
Maximum Humidity 53    
Minimum Humidity 42    
Precipitation  
Precipitation 0.00 in 0.09 in 0.97 in (1986)
Month to date precipitation 1.76  
Year to date precipitation 1.76  
Snow  
Snow 0.00 in 0.60 in - ()
Month to date snowfall 11.4  
Since 1 July snowfall 30.0  
Snow Depth -    
Sea Level Pressure  
Sea Level Pressure 29.94 in    
Wind  
Wind Speed 21 mph (SW)    
Max Wind Speed 25 mph    
Max Gust Speed 40 mph    
Visibility 10 miles    
Events      
T = Trace of Precipitation, MM = Missing Value Source: NWS Daily Summary

Daily Weather History Graph

Daily Weather History Graph

Search for Another Location

Airport:

Trip Planner

Search our weather history database for the weather conditions in past years. The results will help you decide how hot, cold, wet, or windy it might be!

Date:

Astronomy

Jan. 19, 2013 Rise Set
Actual Time 7:50 AM EST 5:29 PM EST
Civil Twilight 7:20 AM EST 5:59 PM EST
Nautical Twilight 6:46 AM EST 6:33 PM EST
Astronomical Twilight 6:13 AM EST 7:06 PM EST
Moon 11:55 AM EST (1/19) 1:22 AM EST (1/19)
Length of Visible Light 10h 39m
Length of Day
9h 39m
First Quarter, 57% of the Moon is Illuminated
Jan 19
First Quarter
Jan 26
Full
Feb 3
Last Quarter
Feb 10
New
Feb 17
First Quarter

Hourly Weather History & Observations

Time (EST) Temp. Windchill Dew Point Humidity Pressure Visibility Wind Dir Wind Speed Gust Speed Precip Events Conditions
12:53 AM 37.9 °F 27.9 °F 19.9 °F 48% 30.10 in 10.0 mi SW 19.6 mph - N/A   Clear
1:53 AM 39.9 °F 30.2 °F 19.9 °F 45% 30.09 in 10.0 mi WSW 20.7 mph 36.8 mph N/A   Clear
2:53 AM 39.0 °F 28.8 °F 21.0 °F 49% 30.09 in 10.0 mi SW 21.9 mph 35.7 mph N/A   Clear
3:53 AM 39.0 °F 28.8 °F 21.0 °F 49% 30.08 in 10.0 mi SW 21.9 mph 28.8 mph N/A   Clear
4:53 AM 39.0 °F 29.0 °F 21.0 °F 49% 30.06 in 10.0 mi SW 20.7 mph 31.1 mph N/A   Clear
5:53 AM 39.0 °F 29.6 °F 21.0 °F 49% 30.06 in 10.0 mi WSW 18.4 mph - N/A   Clear
6:53 AM 39.0 °F 29.0 °F 21.0 °F 49% 30.06 in 10.0 mi SW 20.7 mph 26.5 mph N/A   Clear
7:53 AM 39.0 °F 29.0 °F 21.0 °F 49% 30.07 in 10.0 mi SW 20.7 mph - N/A   Clear
8:53 AM 39.9 °F 30.2 °F 21.9 °F 49% 30.07 in 10.0 mi SW 20.7 mph 27.6 mph N/A   Clear
9:53 AM 43.0 °F 34.2 °F 23.0 °F 45% 30.07 in 10.0 mi WSW 20.7 mph 31.1 mph N/A   Clear
10:53 AM 45.0 °F 36.4 °F 25.0 °F 46% 30.05 in 10.0 mi WSW 23.0 mph 31.1 mph N/A   Clear
11:53 AM 46.9 °F - 26.1 °F 44% 30.01 in 10.0 mi SW 23.0 mph 29.9 mph N/A   Clear
12:53 PM 48.0 °F - 27.0 °F 44% 29.96 in 10.0 mi SW 25.3 mph 35.7 mph N/A   Clear
1:53 PM 48.9 °F - 28.0 °F 44% 29.92 in 10.0 mi SW 25.3 mph 32.2 mph N/A   Clear
2:53 PM 50.0 °F - 28.0 °F 43% 29.88 in 10.0 mi SW 25.3 mph 38.0 mph N/A   Clear
3:53 PM 50.0 °F - 28.0 °F 43% 29.85 in 10.0 mi SW 25.3 mph 39.1 mph N/A   Clear
4:53 PM 48.9 °F - 28.0 °F 44% 29.83 in 10.0 mi SW 18.4 mph 26.5 mph N/A   Clear
5:53 PM 48.0 °F - 27.0 °F 44% 29.83 in 10.0 mi SW 13.8 mph - N/A   Clear
6:53 PM 48.0 °F - 26.1 °F 42% 29.82 in 10.0 mi SW 19.6 mph 27.6 mph N/A   Clear
7:53 PM 48.0 °F - 26.1 °F 42% 29.80 in 10.0 mi SW 20.7 mph 28.8 mph N/A   Partly Cloudy
8:53 PM 46.9 °F - 26.1 °F 44% 29.78 in 10.0 mi SW 23.0 mph 29.9 mph N/A   Clear
9:53 PM 46.0 °F 37.8 °F 27.0 °F 47% 29.76 in 10.0 mi SW 23.0 mph 36.8 mph N/A   Clear
10:53 PM 46.0 °F 37.6 °F 28.0 °F 50% 29.73 in 10.0 mi WSW 24.2 mph 35.7 mph N/A   Mostly Cloudy
11:53 PM 45.0 °F 36.0 °F 28.9 °F 53% 29.71 in 10.0 mi WSW 25.3 mph 40.3 mph N/A   Clear